TJS-15

Last updated on Sun Apr 12 2026 00:02:57 GMT+0000 (Coordinated Universal Time)

1 63157U 25045A 26101.81056536 -.00000261 00000+0 00000+0 0 9990 2 63157 0.2492 84.4667 0006522 286.0513 215.5654 1.00266903 4094
UTC large
Height (km)
Speed (km/s)
/
Latitude / Longitude
Inclination (degrees)
Orbital Period (minutes)
Azimuth
Elevation
Range (km)
Doppler Factor

Next 0 passes for location: London (51.5072 / 0.1276)

Sorry there are no passes over London.
TJS-15